Location: Azul
(36.7830°S, 59.8500°W)
Time: 09:48:39
(UTC-03:00)

UKube-1 - Pass Details

Date: 01 November 2021
Orbit: 611 x 617 km, 98.4° (Epoch: 07 December)

Event Time Altitude Azimuth Distance (km) Brightness Sun altitude
Exits shadow 22:04:20 13° 308° (NW) 1,775 ? -26.3°
Maximum altitude 22:06:27 18° 274° (W) 1,533 ? -26.6°
Drops below altitude 10° 22:09:25 10° 231° (SW) 1,999 ? -27.0°
Sets 22:12:15 0° 212° (SSW) 2,914 ? -27.4°
